Back to catalog

ONEWEB-0558

AliveCommunicationsPO
NORAD 56059·PAYLOAD·🇬🇧 United Kingdom

Launched Mar 26, 2023 from Satish Dhawan Space Centre

Loading…

Next Passes (next 24 hours)

TLE

FreshSource: CelesTrak SupGP

Epoch: Sep 14, 2026, 16:57 UTC

1 56059C 23043P   26257.70678657  .00002218  00000+0  53762-2 0  2579
2 56059  87.9272 226.1574 0001802  79.4688 359.6528 13.21820819    16

Track ONEWEB-0558 in real time with AllMySat

Download on the App Store